Time[GMT],air_temperature[C](-3m),wind_speed[m/s](-4m),wind_gust[m/s](-4m),visibility[m](-3m),barometric_pressure[millibars](-3m),wind_2_direction[degrees_true](-4m),wind_2_gust[m/s](-4m),wind_2_gust_1s[m/s](-4m),wind_2_min[m/s](-4m),wind_2_percent_good[1](-4m),wind_2_speed[m/s](-4m),wind_direction[degrees_true](-4m),wind_gust_1s[m/s](-4m),wind_min[m/s](-4m)
2011-10-08 15:00,15.3,,,2958,1028.92,235.40,2.45,3.04,0.96,1.00,1.92,,,
2011-10-08 16:00,16.1,,,2958,1028.49,220.00,3.23,3.62,1.86,1.00,2.80,,,
2011-10-08 17:00,16.4,,,2958,1028.00,217.00,3.95,4.59,2.44,1.00,3.45,,,
2011-10-08 18:00,17.5,,,2958,1027.32,190.00,3.39,3.71,1.78,1.00,3.00,,,
2011-10-08 19:00,18.0,,,2958,1026.95,227.30,4.15,4.44,2.62,1.00,3.63,,,
2011-10-08 20:00,17.9,,,2958,1026.52,204.40,3.60,4.00,2.34,1.00,3.20,,,
2011-10-08 21:00,18.3,,,2958,1026.40,219.80,3.91,4.08,2.46,1.00,3.35,,,
2011-10-08 22:00,18.1,,,2957,1026.46,245.30,3.42,3.71,2.55,1.00,3.13,,,
2011-10-08 23:00,18.2,,,2957,1026.46,248.20,4.36,4.67,3.42,1.00,3.98,,,
2011-10-09 00:00,,,,,,,,,,,,,,
2011-10-09 01:00,17.6,,,2957,1026.15,242.00,4.55,4.86,3.57,1.00,4.27,,,
2011-10-09 02:00,17.9,,,2957,1026.09,249.50,5.14,5.31,4.06,1.00,4.74,,,
2011-10-09 03:00,17.3,,,2957,1025.84,249.20,5.05,5.30,3.95,1.00,4.58,,,
2011-10-09 04:00,17.0,,,2957,1025.78,238.50,4.98,5.20,3.41,1.00,4.36,,,
2011-10-09 05:00,16.7,,,2957,1025.84,252.50,4.25,4.64,3.03,1.00,3.96,,,
2011-10-09 06:00,16.7,,,2957,1025.72,238.80,3.73,3.85,2.24,1.00,3.07,,,
2011-10-09 07:00,16.7,,,2957,1025.66,261.40,5.18,5.48,2.86,1.00,3.90,,,
2011-10-09 08:00,16.8,,,2957,1025.60,272.10,6.75,6.89,4.74,1.00,5.88,,,
2011-10-09 09:00,16.5,,,2957,1025.72,264.00,6.25,6.73,4.52,1.00,5.55,,,
2011-10-09 10:00,16.7,,,2957,1025.72,261.70,6.98,7.53,4.24,1.00,6.06,,,
2011-10-09 11:00,16.3,,,2957,1025.72,271.00,6.42,7.12,4.06,1.00,5.70,,,
2011-10-09 12:00,16.1,,,2958,1025.66,249.90,6.57,7.05,3.76,1.00,5.34,,,
2011-10-09 13:00,17.5,,,2958,1025.66,275.50,6.63,7.51,4.22,1.00,5.82,,,
2011-10-09 14:00,17.7,,,2958,1025.53,249.40,4.86,5.68,3.18,1.00,4.38,,,
2011-10-09 15:00,17.5,,,2958,1025.35,240.90,3.94,4.65,2.66,1.00,3.61,,,
2011-10-09 16:00,18.3,,,2958,1024.86,253.60,3.03,3.32,1.52,1.00,2.47,,,
2011-10-09 17:00,18.6,,,2957,1024.30,249.20,2.98,3.43,1.73,1.00,2.73,,,
2011-10-09 18:00,19.2,,,2957,1023.75,268.60,2.97,3.41,2.02,1.00,2.73,,,
2011-10-09 19:00,20.6,,,2957,1023.26,261.50,4.12,4.55,2.24,1.00,3.30,,,
2011-10-09 20:00,20.2,,,2957,1022.95,267.80,2.40,2.67,1.25,1.00,1.94,,,
2011-10-09 21:00,19.8,,,2957,1022.64,247.20,2.87,3.18,1.66,1.00,2.51,,,
2011-10-09 22:00,19.1,,,2957,1022.71,213.50,3.08,3.33,1.54,1.00,2.46,,,
2011-10-09 23:00,18.2,,,2957,1022.71,235.40,2.90,3.24,2.09,1.00,2.67,,,
2011-10-10 00:00,17.9,,,2957,1022.28,248.10,3.69,4.00,2.49,1.00,3.35,,,
2011-10-10 01:00,18.5,,,2957,1022.15,253.00,4.63,4.83,3.35,1.00,4.13,,,
2011-10-10 02:00,18.9,,,2957,1022.28,273.80,4.37,4.83,3.32,1.00,3.98,,,
2011-10-10 03:00,18.0,,,2957,1021.91,264.20,4.79,5.06,3.79,1.00,4.43,,,
2011-10-10 04:00,18.0,,,2957,1021.78,269.50,4.64,5.09,3.42,1.00,4.25,,,
2011-10-10 05:00,17.5,,,2957,1021.72,260.80,4.84,5.16,3.48,1.00,4.38,,,
2011-10-10 06:00,17.6,,,2957,1021.41,249.80,5.55,6.13,3.72,1.00,4.64,,,
2011-10-10 07:00,16.4,,,2957,1020.86,249.90,5.11,5.66,3.86,1.00,4.82,,,
2011-10-10 08:00,17.1,,,2957,1020.86,268.80,5.53,5.88,3.37,1.00,4.76,,,
2011-10-10 09:00,17.5,,,2957,1021.17,276.00,5.50,6.34,3.02,1.00,4.65,,,
2011-10-10 10:00,16.6,,,2957,1021.29,294.10,3.14,3.70,1.23,1.00,2.39,,,
2011-10-10 11:00,16.5,,,2943,1021.11,282.20,4.05,4.43,1.40,1.00,2.86,,,
2011-10-10 12:00,16.8,,,2958,1020.98,266.20,5.34,6.33,3.49,1.00,4.54,,,
2011-10-10 13:00,16.4,,,2958,1021.05,246.40,5.26,5.86,3.25,1.00,4.63,,,
2011-10-10 14:00,17.1,,,2958,1020.86,259.70,6.62,7.42,4.38,1.00,5.88,,,
2011-10-10 15:00,17.1,,,2958,1020.43,280.20,2.65,2.93,1.37,1.00,2.20,,,
2011-10-10 16:00,18.9,,,2958,1019.76,288.10,4.00,4.38,2.89,1.00,3.71,,,
2011-10-10 17:00,18.0,,,2957,1019.14,222.80,3.45,3.83,0.99,1.00,2.43,,,
2011-10-10 18:00,18.6,,,2957,1018.71,230.10,3.28,3.68,2.22,1.00,2.90,,,
2011-10-10 19:00,21.2,,,2957,1018.34,291.30,4.40,4.72,3.38,1.00,4.04,,,
2011-10-10 20:00,20.8,,,2957,1017.91,254.00,2.55,2.74,1.52,1.00,2.12,,,
2011-10-10 21:00,20.8,,,2957,1017.98,293.80,4.80,5.29,3.26,1.00,4.05,,,
2011-10-10 22:00,20.1,,,2957,1018.04,279.90,3.88,4.10,2.88,1.00,3.55,,,
2011-10-10 23:00,18.9,,,2957,1018.22,279.30,3.35,3.53,2.48,1.00,3.10,,,
2011-10-11 00:00,18.9,,,2957,1018.65,303.80,2.97,3.26,1.58,1.00,2.28,,,
2011-10-11 01:00,19.1,,,2957,1018.90,325.50,5.16,5.42,3.87,1.00,4.60,,,
2011-10-11 02:00,19.0,,,2957,1019.33,333.30,5.95,6.43,4.05,1.00,5.16,,,
2011-10-11 03:00,17.1,,,2957,1020.06,0.21,4.01,4.81,2.32,1.00,3.41,,,
2011-10-11 04:00,17.2,,,2957,1020.37,28.41,5.20,5.75,2.91,1.00,4.42,,,
2011-10-11 05:00,17.0,,,2957,1021.05,26.68,5.88,6.76,2.79,1.00,4.89,,,
2011-10-11 06:00,16.8,,,2957,1021.17,33.91,6.83,7.51,3.18,1.00,5.51,,,
2011-10-11 07:00,16.4,,,2957,1021.23,33.65,5.61,6.32,2.39,1.00,4.50,,,
2011-10-11 08:00,16.0,,,2957,1021.66,18.30,3.97,4.79,1.80,1.00,3.36,,,
2011-10-11 09:00,16.2,,,2957,1022.21,23.67,5.38,6.42,2.76,1.00,4.63,,,
2011-10-11 10:00,16.1,,,2957,1022.46,37.05,7.25,8.29,3.98,1.00,6.20,,,
2011-10-11 11:00,15.6,,,2957,1022.89,54.30,8.05,9.06,3.64,1.00,6.76,,,
2011-10-11 12:00,15.4,,,2958,1023.44,65.40,7.14,8.32,3.60,1.00,6.25,,,
2011-10-11 13:00,15.1,,,2953,1023.69,58.50,6.80,7.68,3.88,1.00,5.79,,,
2011-10-11 14:00,14.9,,,2954,1024.00,50.26,5.74,6.49,3.04,1.00,4.96,,,
2011-10-11 15:00,14.8,,,2921,1023.87,47.03,6.12,7.00,2.71,1.00,4.77,,,
2011-10-11 16:00,14.7,,,2956,1023.75,59.90,5.54,6.27,2.59,1.00,4.55,,,
2011-10-11 17:00,14.5,,,2958,1023.44,71.20,4.54,5.28,2.52,1.00,3.93,,,
2011-10-11 19:00,14.5,,,2958,1023.44,71.20,4.54,5.28,2.52,1.00,3.93,,,
2011-10-11 20:00,14.6,,,2958,1023.14,84.00,3.97,4.57,1.94,1.00,3.32,,,
2011-10-11 21:00,14.9,,,2958,1023.26,91.20,3.49,4.19,1.36,1.00,2.75,,,
2011-10-11 22:00,14.6,,,2957,1023.38,93.50,3.31,3.92,1.62,1.00,2.73,,,
2011-10-11 23:00,14.4,,,2957,1023.32,100.90,4.14,4.57,2.17,1.00,3.50,,,
2011-10-12 00:00,14.3,,,2957,1023.44,112.00,4.76,5.09,2.49,1.00,3.90,,,
2011-10-12 01:00,14.4,,,2957,1023.38,108.10,5.29,6.17,3.21,1.00,4.68,,,
2011-10-12 02:00,14.4,,,2957,1023.44,101.30,5.86,6.32,2.79,1.00,4.78,,,
2011-10-12 03:00,14.4,,,2957,1023.57,109.90,5.24,5.88,2.38,1.00,4.44,,,
2011-10-12 04:00,14.4,,,2957,1023.75,111.30,5.47,6.07,2.80,1.00,4.51,,,
2011-10-12 05:00,14.3,,,2957,1023.50,102.90,5.55,6.34,2.91,1.00,4.63,,,
2011-10-12 06:00,14.2,,,2957,1023.63,80.40,5.98,6.82,2.78,1.00,4.84,,,
2011-10-12 07:00,14.1,,,2957,1023.38,80.80,6.76,7.48,3.69,1.00,5.32,,,
2011-10-12 08:00,13.8,,,2957,1023.44,71.50,7.01,7.98,3.36,1.00,5.55,,,
2011-10-12 09:00,13.6,,,2957,1023.69,72.80,6.25,6.95,3.00,1.00,5.22,,,
2011-10-12 10:00,13.4,,,2957,1023.57,64.50,6.96,7.86,2.97,1.00,5.60,,,
2011-10-12 11:00,13.4,,,2957,1023.81,76.40,6.69,7.52,2.92,1.00,5.37,,,
2011-10-12 12:00,13.5,,,2957,1023.87,76.00,6.96,7.94,3.30,1.00,5.59,,,
2011-10-12 13:00,13.4,,,2957,1024.30,70.40,6.63,7.83,2.57,1.00,5.06,,,
2011-10-12 14:00,13.5,,,2958,1024.00,74.70,5.31,6.05,2.39,1.00,4.44,,,
2011-10-12 15:00,13.6,,,2957,1023.57,80.60,5.70,6.26,2.54,1.00,4.62,,,
2011-10-12 16:00,13.5,,,2958,1023.01,59.50,5.52,6.13,2.15,1.00,4.07,,,
2011-10-12 17:00,13.6,,,2958,1022.52,52.86,5.80,6.38,2.01,1.00,4.42,,,
2011-10-12 18:00,13.9,,,2958,1021.97,61.70,5.88,6.58,2.60,1.00,4.71,,,
2011-10-12 19:00,14.1,,,2958,1021.60,45.77,6.33,6.73,3.25,1.00,5.00,,,
2011-10-12 20:00,14.1,,,2958,1021.35,28.37,5.04,6.18,2.04,1.00,4.14,,,
2011-10-12 21:00,14.7,,,2957,1020.98,86.50,8.05,9.03,3.79,1.00,6.56,,,
2011-10-12 22:00,14.7,,,2957,1020.86,78.20,7.67,9.10,4.44,1.00,6.67,,,
2011-10-12 23:00,14.9,,,2957,1020.37,72.40,7.67,8.19,3.08,1.00,6.01,,,
2011-10-13 00:00,15.1,,,2957,1020.31,97.40,9.17,10.57,5.27,1.00,7.72,,,
2011-10-13 01:00,14.9,,,2957,1019.82,101.60,9.93,11.32,6.35,1.00,8.70,,,
2011-10-13 02:00,14.7,,,2957,1019.51,98.80,8.91,10.16,5.29,1.00,7.76,,,
2011-10-13 03:00,14.6,,,2957,1018.96,95.30,8.86,9.59,4.85,1.00,7.57,,,
2011-10-13 04:00,14.6,,,2957,1018.34,90.00,8.77,9.47,4.33,1.00,7.15,,,
2011-10-13 05:00,14.4,,,2909,1017.85,83.20,9.20,10.49,4.87,1.00,7.77,,,
2011-10-13 06:00,14.4,,,2957,1016.93,76.50,10.07,11.06,5.82,1.00,8.28,,,
2011-10-13 07:00,14.5,,,2778,1015.58,74.40,9.89,11.48,4.45,1.00,8.11,,,
2011-10-13 08:00,14.6,,,2915,1014.91,79.30,9.60,11.49,4.93,1.00,8.12,,,
2011-10-13 09:00,14.6,,,2046,1014.23,74.20,10.95,12.64,5.00,1.00,9.00,,,
2011-10-13 10:00,14.7,,,2354,1013.44,69.60,11.08,12.09,3.84,1.00,9.20,,,
2011-10-13 11:00,14.8,,,2874,1013.07,69.70,11.68,13.24,6.45,1.00,9.57,,,
2011-10-13 12:00,15.0,,,2888,1012.76,75.50,11.43,12.20,4.88,1.00,9.00,,,
2011-10-13 13:00,15.2,,,2028,1012.52,75.40,8.57,9.70,4.15,1.00,7.25,,,
2011-10-13 14:00,15.4,,,2470,1011.42,50.50,7.73,8.61,4.23,1.00,6.70,,,
2011-10-13 15:00,15.6,,,2759,1010.44,71.90,8.52,9.36,3.84,1.00,7.08,,,
2011-10-13 16:00,15.6,,,2953,1009.64,56.00,8.90,9.75,4.52,1.00,7.05,,,
2011-10-13 17:00,15.5,,,2956,1008.90,61.10,6.11,7.75,2.62,1.00,5.18,,,
2011-10-13 18:00,15.6,,,1248,1008.17,40.01,5.16,5.85,2.29,1.00,3.99,,,
2011-10-13 19:00,15.5,,,1372,1008.17,42.33,4.66,5.86,2.52,1.00,4.00,,,
2011-10-13 20:00,15.4,,,1762,1007.99,348.65,5.66,6.80,1.87,1.00,4.55,,,
2011-10-13 21:00,15.2,,, 888,1007.80,356.30,7.42,8.31,3.80,1.00,6.22,,,
2011-10-13 22:00,15.0,,,1584,1008.35,353.41,6.98,8.51,3.86,1.00,6.10,,,
2011-10-13 23:00,14.9,,,1141,1008.54,349.17,8.35,9.38,4.22,1.00,6.90,,,
2011-10-14 00:00,14.9,,,2880,1008.48,348.80,8.17,8.93,4.18,1.00,6.70,,,
2011-10-14 01:00,14.9,,,2956,1008.60,349.44,7.59,8.74,3.80,1.00,6.31,,,
2011-10-14 02:00,14.9,,,2426,1008.66,350.05,7.24,8.33,4.14,1.00,6.24,,,
2011-10-14 03:00,14.9,,,2929,1008.41,347.97,7.96,9.21,3.68,1.00,6.37,,,
2011-10-14 04:00,14.9,,,2116,1008.05,358.59,7.10,8.36,4.22,1.00,6.17,,,
2011-10-14 05:00,14.9,,,1636,1007.86,4.98,7.58,8.13,4.09,1.00,6.40,,,
2011-10-14 06:00,14.8,,,1776,1008.05,21.22,5.49,6.77,3.17,1.00,4.72,,,
2011-10-14 07:00,14.7,,,1937,1007.50,16.26,5.55,6.53,2.79,1.00,4.54,,,
2011-10-14 08:00,14.6,,,1385,1006.70,24.11,6.68,7.80,3.46,1.00,5.77,,,
2011-10-14 09:00,14.6,,,2044,1006.95,54.10,4.90,5.94,2.14,1.00,3.78,,,
2011-10-14 10:00,14.8,,, 907,1006.88,68.30,5.33,6.10,2.74,1.00,4.47,,,
2011-10-14 11:00,14.9,,,1144,1006.46,59.30,4.28,5.30,2.37,1.00,3.74,,,
2011-10-14 13:00,15.6,,, 620,1005.60,82.00,4.85,5.69,0.51,1.00,4.05,,,
2011-10-14 14:00,15.9,3.6,4.4, 857,1004.62,,,,,0.49,,114.10,5.29,2.35
2011-10-14 15:00,16.1,,,1289,1003.40,110.80,6.67,7.53,3.62,1.00,5.72,,,
2011-10-14 16:00,16.2,,,1153,1002.30,108.80,6.36,7.49,3.56,1.00,5.51,,,
2011-10-14 17:00,16.3,,,2017,1001.38,124.50,8.46,9.87,4.94,1.00,7.04,,,
2011-10-14 18:00,16.6,,,2957,999.98,128.00,6.12,7.05,2.80,1.00,5.13,,,
2011-10-14 19:00,16.4,,,2957,999.00,116.10,7.16,8.23,4.15,1.00,6.16,,,
2011-10-14 20:00,16.6,,,2957,997.78,121.70,8.55,9.66,5.65,1.00,7.56,,,
2011-10-14 21:00,16.7,,,2957,996.13,118.40,7.31,8.45,3.86,1.00,6.28,,,
2011-10-14 22:00,16.5,,,1098,995.83,144.40,5.89,6.98,3.52,1.00,5.14,,,
2011-10-14 23:00,16.5,,,1204,995.16,139.30,6.00,6.68,3.48,1.00,5.16,,,
2011-10-15 00:00,16.5,,,2834,994.00,147.10,5.76,6.96,3.27,1.00,4.99,,,
2011-10-15 01:00,16.4,,,1918,993.94,179.70,8.47,9.24,2.36,1.00,4.80,,,
2011-10-15 02:00,17.0,,,1321,993.75,208.30,12.39,13.57,6.27,1.00,9.49,,,
2011-10-15 03:00,16.4,,,2957,992.47,196.80,6.00,6.70,3.26,1.00,5.24,,,
2011-10-15 04:00,16.6,,,2957,992.11,194.60,9.19,10.64,5.70,1.00,8.18,,,
2011-10-15 05:00,,,,,,,,,,,,,,
2011-10-15 06:00,,,,,,,,,,,,,,
2011-10-15 07:00,15.9,,,2957,995.40,234.60,12.16,13.03,7.08,1.00,10.46,,,
2011-10-15 08:00,15.2,,,2957,996.19,225.70,14.72,16.80,7.28,1.00,11.69,,,
2011-10-15 09:00,14.8,,,2957,997.17,236.40,15.57,17.12,8.53,1.00,12.66,,,
2011-10-15 10:00,14.4,,,2957,998.39,232.80,15.74,16.44,8.69,1.00,12.81,,,
2011-10-15 11:00,14.4,,,2957,999.31,226.40,14.21,15.45,8.16,1.00,11.66,,,
2011-10-15 12:00,14.0,,,2777,1000.47,223.40,14.56,15.34,7.49,1.00,11.75,,,
2011-10-15 13:00,14.3,,,2280,1001.08,231.00,14.44,16.00,8.39,1.00,12.48,,,
2011-10-15 14:00,,,,,,,,,,,,,,
2011-10-15 15:00,15.4,,,2957,1001.32,212.30,10.48,11.72,6.06,1.00,8.86,,,
2011-10-15 16:00,15.8,,,2958,1000.95,226.50,9.61,10.20,4.73,1.00,7.64,,,
2011-10-15 17:00,16.0,,,2957,999.92,223.80,10.98,12.29,6.47,1.00,9.00,,,
2011-10-15 18:00,,,,,,,,,,,,,,
2011-10-15 20:00,15.9,,,2958,999.92,255.60,12.52,13.88,6.03,1.00,9.64,,,
2011-10-15 21:00,15.4,,,2957,1000.47,251.80,7.52,9.06,3.58,1.00,6.12,,,
2011-10-15 22:00,15.6,,,2957,1001.08,244.40,8.44,9.89,4.31,1.00,6.91,,,
2011-10-15 23:00,16.2,,,2957,1001.87,228.70,9.97,11.28,6.07,1.00,8.52,,,
2011-10-16 00:00,16.2,,,2957,1002.36,230.40,14.10,16.09,8.07,1.00,11.70,,,
2011-10-16 01:00,15.9,,,2930,1002.91,235.60,12.90,14.09,7.21,1.00,10.61,,,
2011-10-16 02:00,16.0,,,2928,1002.97,235.20,16.68,17.97,7.95,1.00,13.51,,,
2011-10-16 03:00,15.8,,,2820,1003.28,235.00,17.04,18.84,10.08,1.00,14.32,,,
2011-10-16 04:00,15.8,,,2957,1003.58,235.30,15.46,16.81,9.22,1.00,12.75,,,
2011-10-16 05:00,15.5,,,2957,1003.77,238.70,13.94,15.09,8.32,1.00,11.62,,,
2011-10-16 07:00,,,,,,,,,,,,,,
2011-10-16 08:00,14.8,,,2957,1004.44,233.40,11.52,12.39,6.81,1.00,9.67,,,
2011-10-16 09:00,14.5,,,2957,1004.80,232.40,10.27,11.59,6.49,1.00,8.99,,,
2011-10-16 10:00,14.4,,,2957,1005.36,225.40,12.09,12.79,7.56,1.00,9.83,,,
2011-10-16 11:00,14.1,,,2957,1006.15,236.40,11.89,12.47,7.35,1.00,10.03,,,
2011-10-16 12:00,14.0,,,2918,1007.01,226.30,12.14,12.99,6.86,1.00,10.33,,,
2011-10-16 13:00,13.9,,,2958,1007.62,241.40,13.34,14.54,7.44,1.00,11.08,,,
2011-10-16 14:00,14.1,,,2957,1007.74,250.20,13.32,14.74,7.09,1.00,10.81,,,
2011-10-16 15:00,14.5,,,2912,1007.50,248.80,12.17,13.80,6.37,1.00,10.05,,,
2011-10-16 16:00,14.9,,,2958,1007.07,253.50,12.30,13.76,6.15,1.00,10.27,,,
2011-10-16 17:00,15.3,,,2957,1006.40,263.00,10.49,11.38,5.45,1.00,8.69,,,
2011-10-16 18:00,15.6,,,2927,1006.21,256.60,11.97,13.08,6.58,1.00,9.88,,,
2011-10-16 19:00,15.9,,,2957,1005.60,250.80,11.46,12.43,5.88,1.00,8.94,,,
2011-10-16 20:00,16.2,,,2958,1005.97,254.80,9.88,10.94,5.52,1.00,8.15,,,
2011-10-16 21:00,16.1,,,2957,1005.36,226.30,7.59,8.54,3.92,1.00,6.41,,,
2011-10-16 22:00,15.8,,,2957,1005.17,210.30,9.00,9.40,4.80,1.00,7.23,,,
2011-10-16 23:00,15.7,,,2957,1005.66,209.60,9.25,10.23,5.92,1.00,8.13,,,
2011-10-17 00:00,15.3,,,2957,1005.48,196.80,8.46,9.74,5.48,1.00,7.31,,,
2011-10-17 01:00,15.3,,,2957,1005.91,202.80,8.54,9.51,4.59,1.00,7.14,,,
2011-10-17 02:00,15.2,,,2957,1005.36,200.60,10.58,11.29,1.57,1.00,8.87,,,
2011-10-17 03:00,15.3,,,2957,1004.62,190.50,10.48,11.59,6.32,1.00,8.93,,,
2011-10-17 04:00,15.7,,,2957,1003.89,184.20,8.57,9.82,4.45,1.00,7.38,,,
2011-10-17 05:00,16.0,,,2957,1002.67,191.60,8.85,9.45,4.51,1.00,6.87,,,
2011-10-17 06:00,15.9,,,2895,1002.12,206.40,9.33,10.46,5.31,1.00,7.57,,,
2011-10-17 07:00,,,,,,,,,,,,,,
2011-10-17 08:00,15.9,,,2957,1000.65,219.70,10.50,11.54,6.26,1.00,8.97,,,
2011-10-17 09:00,15.7,,,2957,1000.34,225.60,11.27,12.06,6.17,1.00,9.56,,,
2011-10-17 10:00,15.5,,,2957,1001.38,246.80,8.22,8.84,4.83,1.00,6.95,,,
2011-10-17 11:00,14.4,,,2957,1002.05,264.80,12.15,13.79,5.85,1.00,9.93,,,
2011-10-17 12:00,13.8,,,2949,1003.15,265.60,9.28,10.12,5.25,1.00,7.80,,,
2011-10-17 13:00,13.1,,,2958,1004.07,265.30,9.24,10.50,4.70,1.00,7.60,,,
2011-10-17 14:00,13.8,,,2921,1004.56,270.60,8.45,9.92,5.05,1.00,7.29,,,
2011-10-17 15:00,14.2,,,2862,1004.44,266.10,10.04,11.09,5.74,1.00,8.39,,,
2011-10-17 16:00,14.7,,,2930,1004.01,263.90,12.44,13.01,1.57,1.00,9.11,,,
2011-10-17 17:00,15.1,,,2957,1003.64,269.40,10.25,11.30,5.06,1.00,8.44,,,
2011-10-17 18:00,15.3,,,2958,1003.52,258.40,8.51,9.40,4.62,1.00,7.27,,,
2011-10-17 19:00,15.8,,,2957,1003.09,247.60,8.63,9.53,4.18,1.00,7.39,,,
2011-10-17 20:00,16.2,,,2957,1003.40,253.30,8.32,9.42,4.29,1.00,6.58,,,
2011-10-17 21:00,16.1,,,2957,1003.77,246.30,7.83,8.28,3.83,1.00,5.90,,,
2011-10-17 22:00,15.8,,,2957,1004.32,239.00,3.99,4.89,2.26,1.00,3.51,,,
2011-10-17 23:00,15.5,,,2957,1005.29,237.30,3.30,4.28,1.63,1.00,2.82,,,
2011-10-18 00:00,15.5,,,2957,1005.48,193.00,7.95,8.46,3.00,1.00,4.88,,,
2011-10-18 01:00,15.3,,,2957,1005.84,212.40,9.31,10.40,5.11,1.00,7.94,,,
2011-10-18 02:00,15.1,,,2957,1006.15,206.00,10.05,11.60,6.00,1.00,8.73,,,
2011-10-18 03:00,14.8,,,2957,1005.97,213.80,11.81,12.53,7.33,1.00,9.72,,,
2011-10-18 04:00,14.8,,,2957,1005.84,212.60,11.75,12.96,7.05,1.00,9.87,,,
2011-10-18 05:00,15.1,,,2957,1005.72,224.00,10.40,11.24,5.85,1.00,8.66,,,
2011-10-18 06:00,15.1,,,2957,1005.54,237.00,10.25,11.43,5.57,1.00,8.80,,,
2011-10-18 07:00,14.8,,,2957,1005.97,255.80,10.07,11.06,5.99,1.00,8.27,,,
2011-10-18 08:00,14.3,,,2957,1006.76,248.30,8.24,9.19,4.99,1.00,7.28,,,
2011-10-18 09:00,14.0,,,2957,1007.50,249.60,7.88,8.91,4.55,1.00,6.80,,,
2011-10-18 10:00,13.8,,,2957,1007.62,262.50,6.86,7.75,4.02,1.00,5.78,,,
2011-10-18 11:00,13.9,,,2957,1008.29,236.60,5.97,6.81,3.36,1.00,5.39,,,
2011-10-18 12:00,14.1,,,2957,1009.33,228.80,7.18,8.10,4.28,1.00,6.10,,,
2011-10-18 13:00,14.3,,,2957,1010.01,228.50,8.97,9.84,4.81,1.00,7.42,,,
2011-10-18 14:00,14.4,,,2955,1010.07,221.60,7.75,8.56,4.02,1.00,6.58,,,
2011-10-18 15:00,14.4,,,2957,1010.25,256.50,6.88,7.38,3.09,1.00,5.48,,,
2011-10-18 16:00,14.6,,,2957,1010.50,243.60,6.63,7.95,3.84,1.00,5.61,,,
2011-10-18 17:00,15.1,,,2957,1010.19,250.40,5.63,6.38,3.25,1.00,4.91,,,
2011-10-18 18:00,15.2,,,2957,1009.95,233.60,3.03,3.71,1.09,1.00,2.58,,,
2011-10-18 19:00,15.7,,,2957,1009.95,282.90,1.90,2.51,0.09,1.00,1.06,,,
2011-10-18 20:00,15.7,,,2957,1010.31,147.20,3.02,3.39,1.72,1.00,2.62,,,
2011-10-18 21:00,16.2,,,2957,1010.74,122.90,2.44,2.87,0.89,1.00,1.93,,,
2011-10-18 22:00,15.1,,,2957,1011.42,89.00,2.69,2.95,1.53,1.00,2.31,,,
2011-10-18 23:00,14.9,,,2957,1011.97,69.30,3.36,3.68,2.24,1.00,2.93,,,
2011-10-19 00:00,14.8,,,2957,1012.46,80.00,3.65,3.97,2.49,1.00,3.19,,,
2011-10-19 01:00,14.8,,,2957,1013.07,86.00,3.89,4.35,2.53,1.00,3.51,,,
2011-10-19 02:00,14.9,,,2957,1013.38,97.10,5.23,5.45,2.76,1.00,4.25,,,
2011-10-19 03:00,14.9,,,2957,1013.68,96.20,5.26,6.05,2.67,1.00,4.45,,,
2011-10-19 04:00,14.9,,,2957,1013.93,101.20,6.29,7.09,3.34,1.00,5.32,,,
2011-10-19 05:00,14.8,,,2957,1013.74,99.80,6.70,7.67,3.67,1.00,5.83,,,
2011-10-19 06:00,14.7,,,2957,1014.05,97.30,5.85,7.06,3.09,1.00,4.90,,,
2011-10-19 07:00,14.6,,,2957,1013.19,85.90,6.11,7.10,3.02,1.00,5.05,,,
2011-10-19 08:00,14.6,,,2957,1013.56,74.90,4.97,5.88,2.83,1.00,4.28,,,
2011-10-19 09:00,14.5,,,2957,1013.81,91.30,6.77,7.49,3.23,1.00,5.37,,,
2011-10-19 10:00,14.5,,,2957,1013.38,77.20,8.22,9.32,3.18,1.00,6.52,,,
2011-10-19 11:00,14.7,,,2957,1013.93,100.10,9.21,9.95,5.18,1.00,7.49,,,
2011-10-19 12:00,14.8,,,2957,1014.60,83.10,7.64,8.67,4.24,1.00,6.71,,,
2011-10-19 13:00,14.8,,,2957,1014.72,80.00,8.15,9.43,4.64,1.00,6.92,,,
2011-10-19 14:00,14.8,,,2955,1014.54,81.70,8.75,9.88,4.57,1.00,7.49,,,
2011-10-19 15:00,14.4,,,2746,1013.62,77.20,11.74,12.74,6.72,1.00,9.69,,,
2011-10-19 16:00,14.0,,,2427,1013.01,78.00,11.45,12.59,5.99,1.00,9.53,,,
2011-10-19 17:00,13.8,,,2816,1011.23,70.20,13.25,14.70,8.10,1.00,11.07,,,
2011-10-19 18:00,13.8,,,2690,1010.19,71.40,13.65,14.73,8.48,1.00,11.53,,,
2011-10-19 19:00,13.8,,,2813,1009.64,63.40,12.80,14.08,7.99,1.00,10.92,,,
2011-10-19 20:00,13.8,,,1838,1008.66,52.87,11.31,12.44,6.29,1.00,9.69,,,
2011-10-19 21:00,13.6,,, 973,1007.25,50.84,14.86,16.90,8.24,1.00,12.12,,,
2011-10-19 22:00,13.6,,, 637,1006.40,41.32,14.39,16.70,1.58,1.00,12.25,,,
2011-10-19 23:00,13.9,,,1085,1005.36,43.48,14.81,16.29,7.34,1.00,12.46,,,
2011-10-20 00:00,14.0,,,1174,1004.99,53.81,14.73,16.00,7.70,1.00,11.98,,,
2011-10-20 02:00,14.1,,,1686,1003.89,47.52,13.08,14.40,1.57,1.00,11.00,,,
2011-10-20 03:00,14.0,,,2754,1003.09,37.60,12.40,13.59,4.86,1.00,9.59,,,
2011-10-20 04:00,14.0,,,2516,1001.87,32.73,13.09,14.29,6.65,1.00,10.28,,,
2011-10-20 05:00,13.8,,,2197,1001.57,28.56,12.61,13.82,6.43,1.00,10.25,,,
2011-10-20 06:00,13.7,,,1751,1000.47,21.14,12.69,14.15,6.62,1.00,10.70,,,
2011-10-20 07:00,13.7,,,2712,999.37,28.85,12.78,14.72,6.07,1.00,10.54,,,
2011-10-20 08:00,13.8,,,2238,999.67,10.17,10.23,11.52,5.10,1.00,8.41,,,
2011-10-20 09:00,13.9,,,2957,999.61,24.31,10.53,11.41,5.26,1.00,8.51,,,
2011-10-20 10:00,14.2,,,2957,999.79,2.25,7.05,7.67,2.89,1.00,5.75,,,
2011-10-20 11:00,14.0,,,2843,999.67,359.75,7.36,8.82,3.34,1.00,6.26,,,
2011-10-20 12:00,14.0,,,1952,999.55,11.47,7.51,8.80,3.34,1.00,6.03,,,
2011-10-20 13:00,14.1,,,2396,999.12,27.41,7.49,8.69,3.33,1.00,6.10,,,
2011-10-20 14:00,14.4,,,2769,998.45,40.12,5.27,6.78,2.13,1.00,4.53,,,
2011-10-20 15:00,16.0,,, 280,998.15,120.00,3.86,4.78,0.84,1.00,2.83,,,
2011-10-20 16:00,16.5,,,2910,997.90,176.80,8.44,9.54,3.91,1.00,6.88,,,
2011-10-20 17:00,17.0,,,2957,997.41,188.10,8.54,9.99,3.37,1.00,6.01,,,
2011-10-20 18:00,17.7,,,2957,997.60,189.80,11.19,13.32,5.47,1.00,9.66,,,
2011-10-20 19:00,17.1,,,2907,998.33,195.00,13.51,14.86,6.74,1.00,11.09,,,
2011-10-20 20:00,17.1,,,2907,998.33,195.00,13.51,14.86,6.74,1.00,11.09,,,
2011-10-20 21:00,16.7,,,2957,999.24,195.00,11.85,13.43,6.73,1.00,10.14,,,
2011-10-20 22:00,16.1,,,2957,1000.04,193.50,12.28,13.47,6.30,1.00,10.21,,,
2011-10-20 23:00,15.8,,,2957,1001.08,198.40,12.08,13.52,6.85,1.00,9.87,,,
2011-10-21 00:00,15.0,,,2957,1001.93,202.50,11.76,12.86,5.71,1.00,9.70,,,
2011-10-21 01:00,14.9,,,2957,1002.79,201.30,10.92,12.10,5.74,1.00,9.11,,,
2011-10-21 02:00,14.2,,,2957,1003.40,202.00,11.18,12.31,6.25,1.00,9.33,,,
2011-10-21 03:00,,,,,,,,,,,,,,
2011-10-21 04:00,13.9,,,2957,1004.38,213.30,11.24,12.03,6.10,1.00,9.41,,,
2011-10-21 05:00,14.8,,,2957,1004.99,218.10,11.33,11.97,6.17,1.00,9.43,,,
2011-10-21 06:00,14.1,,,2957,1005.23,226.20,11.46,13.15,6.63,1.00,9.36,,,
2011-10-21 07:00,13.5,,,2957,1005.54,219.50,11.32,12.11,6.22,1.00,9.51,,,
2011-10-21 08:00,,,,,,,,,,,,,,
2011-10-21 09:00,13.0,,,2957,1006.03,214.00,11.56,13.55,6.95,1.00,9.54,,,
2011-10-21 10:00,13.0,,,2957,1006.46,215.70,11.69,12.82,6.73,1.00,9.56,,,
2011-10-21 11:00,12.6,,,2957,1006.88,217.00,10.99,12.03,6.44,1.00,9.63,,,
2011-10-21 13:00,12.1,,,2957,1008.23,228.20,12.05,12.91,7.14,1.00,10.22,,,
2011-10-21 14:00,12.7,,,2957,1008.78,227.50,11.80,12.58,7.09,1.00,10.13,,,
2011-10-21 15:00,13.2,,,2957,1009.09,222.50,10.69,11.50,5.64,1.00,8.91,,,
2011-10-21 16:00,13.4,,,2957,1009.21,224.90,10.60,11.47,5.21,1.00,9.26,,,
2011-10-21 17:00,13.9,,,2957,1008.97,217.40,9.68,10.74,5.43,1.00,7.92,,,
2011-10-21 18:00,14.3,,,2957,1008.97,226.50,8.17,9.25,4.82,1.00,6.89,,,
2011-10-21 19:00,14.9,,,2957,1009.27,219.70,6.64,7.68,3.49,1.00,5.50,,,
2011-10-21 20:00,15.2,,,2950,1009.76,247.60,5.45,6.21,2.60,1.00,4.38,,,
2011-10-21 21:00,14.7,,,2957,1010.31,241.60,5.13,5.61,2.67,1.00,4.08,,,
2011-10-21 22:00,14.0,,,2957,1011.17,265.80,6.50,7.47,3.87,1.00,5.61,,,
2011-10-21 23:00,13.9,,,2957,1011.78,262.30,5.33,6.39,3.06,1.00,4.49,,,
2011-10-22 00:00,14.4,,,2957,1011.97,260.00,4.24,4.96,2.39,1.00,3.58,,,
2011-10-22 01:00,13.2,,,2957,1012.89,269.80,4.35,5.29,1.99,1.00,3.54,,,
2011-10-22 02:00,13.2,,,2957,1013.31,244.90,5.95,6.64,3.05,1.00,4.84,,,
2011-10-22 03:00,13.3,,,2957,1013.50,246.60,5.66,6.36,3.20,1.00,4.86,,,
2011-10-22 04:00,13.7,,,2957,1013.50,254.70,6.15,6.77,3.68,1.00,5.38,,,
2011-10-22 05:00,13.3,,,2957,1013.56,252.60,6.68,7.22,3.42,1.00,5.61,,,
2011-10-22 06:00,12.1,,,2957,1013.87,249.90,6.02,7.02,3.16,1.00,5.05,,,
2011-10-22 07:00,12.8,,,2957,1013.50,255.10,5.20,6.08,2.45,1.00,4.20,,,
2011-10-22 08:00,12.4,,,2957,1013.81,264.00,6.05,6.66,3.36,1.00,5.01,,,
2011-10-22 09:00,12.4,,,2957,1013.87,276.90,6.66,6.96,3.77,1.00,5.32,,,
2011-10-22 10:00,12.4,,,2957,1014.17,276.20,5.49,6.22,2.95,1.00,4.61,,,
2011-10-22 11:00,12.0,,,2957,1014.48,259.30,5.94,6.30,3.33,1.00,4.67,,,